This is the latest recevied weather packets stored in our database for station/object WB4YDL. If no packets are shown the sender has not sent any weather packets the latest 10 day(s).
| Time | Temp. | Humidity | Pressure | Rain* | Wind** | Luminosity | Snow |
|---|---|---|---|---|---|---|---|
| 1777936187 | 25.56° C | 45% | 1003.3 hPa | 0 mm | - | 128 W/m² | - |
| 1777935884 | 25.56° C | 44% | 1003.3 hPa | 0 mm | - | 140 W/m² | - |
| 1777935583 | 25.56° C | 44% | 1003.3 hPa | 0 mm | - | 149 W/m² | - |
| 1777935279 | 25.56° C | 44% | 1003.3 hPa | 0 mm | - | 166 W/m² | - |
| 1777934977 | 25.56° C | 43% | 1003.3 hPa | 0 mm | - | 181 W/m² | - |
| 1777934673 | 25.56° C | 44% | 1003.4 hPa | 0 mm | - | 188 W/m² | - |
| 1777934370 | 26.11° C | 44% | 1003.6 hPa | 0 mm | - | 208 W/m² | - |
| 1777934066 | 26.11° C | 43% | 1003.7 hPa | 0 mm | - | 228 W/m² | - |
| 1777933762 | 26.11° C | 43% | 1003.7 hPa | 0 mm | - | 240 W/m² | - |
| 1777933460 | 26.11° C | 44% | 1003.4 hPa | 0 mm | - | 252 W/m² | - |
| 1777933157 | 26.11° C | 42% | 1003.6 hPa | 0 mm | - | 267 W/m² | - |
| 1777932854 | 26.67° C | 43% | 1003.5 hPa | 0 mm | - | 291 W/m² | - |
| 1777932551 | 26.67° C | 42% | 1003.5 hPa | 0 mm | - | 300 W/m² | - |
| 1777932248 | 26.11° C | 43% | 1003.5 hPa | 0 mm | - | 320 W/m² | - |
| 1777931945 | 26.11° C | 42% | 1003.5 hPa | 0 mm | - | 341 W/m² | - |
| 1777931641 | 26.67° C | 41% | 1003.4 hPa | 0 mm | - | 361 W/m² | - |
| 1777931338 | 26.11° C | 42% | 1003.5 hPa | 0 mm | - | 376 W/m² | - |
| 1777931034 | 26.67° C | 42% | 1003.5 hPa | 0 mm | - | 388 W/m² | - |
| 1777930731 | 26.67° C | 41% | 1003.5 hPa | 0 mm | - | 407 W/m² | - |
| 1777930427 | 26.67° C | 41% | 1003.3 hPa | 0 mm | - | 431 W/m² | - |
| 1777930124 | 26.67° C | 41% | 1003.5 hPa | 0 mm | - | 438 W/m² | - |
| 1777929820 | 26.67° C | 41% | 1003.6 hPa | 0 mm | - | 459 W/m² | - |
| 1777929519 | 26.67° C | 41% | 1003.2 hPa | 0 mm | - | 468 W/m² | - |
| 1777929214 | 26.11° C | 41% | 1003.3 hPa | 0 mm | - | 488 W/m² | - |
| 1777928912 | 26.67° C | 41% | 1003.4 hPa | 0 mm | - | 500 W/m² | - |
* Rain latest hour (hover to see other rain measurements)
** Current wind speed in m/s (hover to see current wind gust speed)